SCP
0 0 0 0 0 0 0 0 0 0 0 0 0 1 1 1 1 1 1 1 1 1 1 1 1 1 1 1 1 1 1 1 0 0 0 0 0 0 0 0 0 0 0
0 0 0 0 0 0 0 0 0 0 0 0 0 0 1 1 1 1 1 1 1 1 1 1 1 1 1 1 1 1 1 0 0 0 0 0 0 0 0 0 0 0 0
0 0 0 0 0 0 0 0 0 0 0 0 0 0 0 1 1 1 1 1 2 2 1 1 1 1 1 1 0 0 0 0 0 0 0 0 0 0 0 0 0 0 0
0 0 0 0 0 0 0 0 0 0 0 0 0 0 0 0 0 0 1 1 2 2 2 1 1 1 1 0 0 0 0 0 0 0 0 0 0 0 0 0 0 0 0
0 0 0 0 0 0 0 0 0 0 0 0 0 0 0 0 0 0 0 1 1 2 2 2 1 1 1 0 0 0 0 0 0 0 0 0 0 0 0 0 0 0 0
0 0 0 0 0 0 0 0 0 0 0 0 0 0 0 0 0 0 0 0 1 1 1 2 2 1 1 1 0 0 0 0 0 0 0 0 0 0 0 0 0 0 0
0 0 0 0 0 0 0 0 0 0 0 0 0 0 0 0 0 0 0 0 0 0 1 1 2 1 1 1 1 0 0 0 0 0 0 0 0 0 0 0 0 0 0
0 0 0 0 0 0 0 0 0 0 0 0 0 0 0 0 0 0 0 0 0 0 0 1 1 1 1 1 1 1 0 0 0 0 0 0 0 0 0 0 0 0 0
0 0 0 0 0 0 0 0 0 0 0 0 0 0 0 0 0 0 0 0 0 0 0 0 0 1 1 1 1 0 0 0 0 0 0 0 0 0 0 0 0 0 0
0 0 0 0 0 0 0 0 0 0 0 0 0 0 0 0 0 0 0 0 0 0 0 0 0 0 0 0 0 0 0 0 0 0 0 0 0 0 0 0 0 0 0
0 0 0 0 0 0 0 0 0 0 0 0 0 0 0 0 0 0 0 0 0 0 0 0 0 0 0 0 0 0 0 0 0 0 0 0 0 0 0 0 0 0 0
0 0 0 0 0 0 0 0 0 0 0 0 0 0 0 0 0 0 0 0 0 0 0 0 0 0 0 0 0 0 0 0 0 0 0 0 0 0 0 0 0 0 0
0 0 0 0 0 0 0 0 0 0 0 0 0 0 0 0 0 0 0 0 0 0 0 0 0 0 0 0 0 0 0 0 0 0 0 0 0 0 0 0 0 0 0
0 0 0 0 0 0 0 0 0 0 0 0 0 0 0 0 0 0 0 0 0 0 0 0 0 0 0 0 0 0 0 0 0 0 0 0 0 0 0 0 0 0 0
0 0 0 0 0 0 0 0 0 0 0 0 0 0 0 0 0 0 0 0 0 0 0 0 0 0 0 0 0 0 0 0 0 0 0 0 0 0 0 0 0 0 0
0 0 0 0 0 0 0 0 0 0 0 0 0 0 0 0 0 0 0 0 0 0 0 0 0 0 0 0 0 0 0 0 0 0 0 0 0 0 0 0 0 0 0
0 0 0 0 0 0 0 0 0 0 0 0 0 0 0 0 0 0 0 0 0 0 0 0 0 0 0 0 0 0 0 0 0 0 0 0 0 0 0 0 0 0 0
0 0 0 0 0 0 0 0 0 0 0 0 0 0 0 0 0 0 0 0 0 0 0 0 0 0 0 0 0 0 0 0 0 0 0 0 0 0 0 0 0 0 0
0 0 0 0 0 0 0 0 0 0 0 0 0 0 0 0 0 0 0 0 0 0 0 0 0 0 0 0 0 0 0 0 0 0 0 0 0 0 0 0 0 0 0
0 0 0 0 0 0 0 0 0 0 0 0 0 0 0 0 0 0 0 0 0 0 0 0 0 0 0 0 0 0 0 0 0 0 0 0 0 0 0 0 0 0 0
0 0 0 0 0 0 0 0 0 0 0 0 0 0 0 0 0 0 0 0 0 0 0 0 0 0 0 0 0 0 0 0 0 0 0 0 0 0 0 0 0 0 0
0 0 0 0 0 0 0 0 0 0 0 0 0 0 0 0 0 0 0 0 0 0 0 0 0 0 0 0 0 0 0 0 0 0 0 0 0 0 0 0 0 0 0
0 0 0 0 0 0 0 0 0 0 0 0 0 0 0 0 0 0 0 0 0 0 0 0 0 0 0 0 0 0 0 0 0 0 0 0 0 0 0 0 0 0 0
0 0 0 0 0 0 0 0 0 0 0 0 0 0 0 0 0 0 0 0 0 0 0 0 0 0 0 0 0 0 0 0 0 0 0 0 0 0 0 0 0 0 0
0 0 0 0 0 0 0 0 0 0 0 0 0 0 0 0 0 0 0 0 0 0 0 0 0 0 0 0 0 0 0 0 0 0 0 0 0 0 0 0 0 0 0
0 0 0 0 0 0 0 0 0 0 0 0 0 0 0 0 0 0 0 0 0 0 0 0 0 0 0 0 0 0 0 0 0 0 0 0 0 0 0 0 0 0 0
Wind_Speed
2 1 1 1 2 2 3 2 2 2 2 1 1 1 0 1 1 1 2 2 3 4 4 3 2 2 2 2 1 1 1 1 1 1 1 2 1 0 1 1 1 0 1
0 0 1 1 2 2 2 2 2 1 1 1 1 1 1 1 1 1 1 2 2 2 3 3 3 2 2 2 1 1 1 1 1 1 1 1 2 2 1 0 0 0 0
2 1 1 1 2 2 1 2 1 1 2 2 2 2 2 2 2 1 0 0 2 2 2 2 2 2 2 2 2 2 2 1 0 1 2 1 2 2 2 1 1 1 1
2 2 1 1 1 1 1 1 1 2 2 2 2 3 2 1 1 1 0 1 1 2 1 2 2 2 2 2 2 2 1 2 1 0 0 0 1 1 2 2 2 2 1
2 2 2 2 1 1 2 2 2 2 2 2 2 2 2 1 1 1 1 1 1 1 1 1 1 2 2 2 2 2 2 2 2 2 1 0 0 0 1 2 3 3 2
1 1 1 2 2 2 2 2 2 2 2 1 2 2 2 2 2 1 1 1 0 1 1 1 0 1 2 2 2 2 2 2 2 2 2 2 1 1 1 2 3 3 3
1 1 2 2 2 2 2 1 2 2 2 1 1 1 1 2 2 2 1 1 0 1 1 0 0 1 1 2 2 2 2 2 2 3 2 2 2 2 2 2 2 3 3
1 1 1 1 1 1 1 1 1 1 2 1 0 0 1 1 1 1 1 2 1 1 1 1 1 1 1 1 1 1 2 2 2 3 2 2 2 2 2 2 1 2 3
0 1 1 1 1 1 0 0 1 1 1 1 1 0 0 0 1 1 1 1 1 1 1 0 0 1 1 1 1 1 2 2 2 3 3 3 2 2 2 2 2 3 3
0 0 0 0 0 0 0 1 1 0 1 1 1 0 0 0 1 1 1 1 1 1 1 1 1 1 1 1 1 1 1 1 2 2 3 2 2 2 2 2 2 3 4
1 1 0 0 0 1 1 1 1 1 1 1 2 1 1 1 0 1 2 2 2 2 2 2 2 2 2 2 2 2 2 2 2 2 2 3 3 3 2 2 2 3 3
1 1 0 0 1 1 1 1 1 1 1 1 2 2 1 1 1 1 2 2 2 2 2 2 2 2 3 3 3 3 3 3 3 2 2 3 3 3 3 3 3 3 4
1 0 0 0 0 0 1 1 1 1 2 2 2 2 2 1 2 2 2 2 2 2 2 2 3 3 3 3 3 4 3 3 3 3 3 4 3 4 3 4 4 3 3
1 1 1 1 1 1 1 1 1 2 2 2 2 2 3 2 2 3 3 3 2 3 3 3 3 3 3 4 4 4 3 4 4 4 4 4 4 4 4 4 4 4 4
2 2 2 2 2 2 2 2 2 2 2 2 3 3 3 3 2 2 3 3 3 3 3 3 3 3 3 4 4 4 3 3 4 4 4 4 6 7 5 4 4 4 4
4 3 3 3 3 3 3 2 2 2 2 2 3 3 3 3 3 3 3 3 3 3 3 3 3 3 4 7 7 4 3 3 4 4 4 4 5 7 8 9 9 7 5
5 4 4 4 4 4 3 3 3 2 2 3 4 3 3 3 3 3 3 3 3 3 3 3 4 4 6 8 8 7 3 3 4 4 4 4 5 6 4 7 8 7 8
5 5 4 4 3 3 3 3 2 2 3 3 4 4 3 4 3 3 3 4 3 3 4 4 4 4 6 8 8 8 3 4 4 4 4 4 4 5 5 4 4 5 5
5 5 4 4 3 3 2 2 2 3 3 4 4 4 4 4 4 4 4 4 3 3 4 4 4 4 6 8 8 6 2 3 4 4 4 4 4 8 8 4 4 5 5
3 3 3 2 3 3 2 2 3 3 4 4 4 4 4 4 4 4 4 4 3 4 4 4 4 5 5 7 8 6 2 3 3 3 4 7 7 9 8 4 4 5 5
3 3 3 3 4 3 2 3 4 5 5 4 4 4 4 4 4 4 4 3 3 3 4 4 4 4 6 7 8 7 2 3 3 3 3 4 9 10 9 6 4 6 5
3 3 3 3 3 3 3 4 5 5 3 3 4 4 4 4 3 3 3 3 3 3 4 4 4 3 4 5 6 7 6 5 3 4 3 4 8 9 8 6 7 7 5
4 3 3 4 4 3 3 5 5 4 3 3 4 4 4 3 3 3 3 3 3 3 3 3 3 3 3 3 6 6 7 7 4 3 6 8 8 7 5 7 7 5 3
4 3 3 4 4 4 4 5 5 4 3 4 4 3 3 3 3 3 3 3 3 3 3 3 4 3 3 3 3 3 3 5 4 3 5 7 7 6 6 5 4 3 3
3 3 4 5 6 5 5 4 4 4 3 4 4 3 3 3 3 3 3 4 4 5 4 4 4 4 4 5 7 4 3 3 3 3 2 2 2 2 2 2 2 2 2
4 4 4 5 5 5 5 4 4 4 4 4 3 3 2 2 2 3 3 5 6 8 8 8 7 6 7 8 8 8 8 7 6 3 2 2 3 3 3 3 3 3 3
Wind_Direction
231 204 178 138 103 91 88 89 85 70 83 84 104 112 119 127 122 112 114 126 141 146 140 136 134 141 148 149 133 113 85 33 30 56 359 337 327 277 246 217 182 228 277
281 72 111 117 124 123 101 89 82 84 95 78 121 139 150 121 108 106 99 135 123 142 145 144 149 152 146 135 129 108 104 49 59 101 77 337 324 329 319 318 187 233 357
189 170 111 89 75 79 101 113 99 91 74 66 77 80 68 58 51 45 51 101 128 135 133 143 150 154 152 161 172 158 144 157 292 81 133 161 245 302 303 318 314 343 329
202 181 149 119 108 87 62 96 106 90 73 84 97 110 122 131 192 192 156 64 83 102 116 137 145 160 167 171 185 170 175 159 182 276 298 175 168 196 297 308 328 320 285
200 168 149 145 123 98 90 68 65 65 64 84 99 114 123 135 110 78 80 65 40 71 79 107 140 168 183 187 190 182 181 183 183 183 186 266 4 98 201 287 313 311 290
193 155 117 97 81 66 69 75 67 42 49 82 96 105 129 133 113 90 104 72 0 355 29 76 141 202 199 194 208 205 193 202 196 192 180 170 177 212 199 252 283 289 293
143 128 103 88 76 67 57 65 87 48 33 71 99 136 148 162 173 178 180 174 244 302 301 326 242 231 225 211 200 203 216 216 207 209 217 211 214 196 200 224 268 288 293
121 147 154 141 121 79 50 50 65 54 36 33 12 100 160 177 199 205 201 208 220 235 267 276 270 272 248 234 213 219 233 229 225 229 223 220 231 217 209 204 208 277 286
105 118 144 139 141 131 129 133 101 49 35 23 7 74 18 219 214 205 211 224 243 241 243 249 313 305 281 254 228 231 251 246 234 231 234 232 228 221 224 214 202 216 256
99 69 101 146 147 143 6 51 86 84 352 358 345 40 296 244 247 219 212 221 234 235 229 241 257 279 283 271 242 242 256 254 261 248 239 242 243 238 226 221 224 226 234
206 226 301 52 100 45 29 32 43 40 4 351 349 335 304 308 298 259 247 237 238 227 220 226 232 240 248 252 243 244 242 242 257 268 256 254 252 244 240 235 233 235 232
212 198 217 82 73 25 358 343 340 346 328 332 337 317 295 303 284 271 265 254 246 242 234 232 236 244 248 241 233 237 233 235 245 258 261 263 261 251 247 243 242 241 238
193 171 131 47 281 272 289 300 312 308 314 327 322 319 300 283 275 274 275 267 254 251 244 229 230 239 244 242 238 233 233 238 240 242 245 253 255 255 251 246 246 247 251
196 210 245 278 286 282 274 274 290 297 308 314 305 297 289 269 267 273 271 268 261 249 241 238 239 239 244 244 239 234 236 243 246 243 241 245 245 248 252 248 243 246 252
245 241 250 268 279 288 292 290 291 296 303 305 299 289 293 284 280 279 272 268 265 258 243 240 246 245 243 247 242 227 230 239 250 253 251 252 259 261 260 260 246 240 242
240 241 246 252 258 262 266 272 282 288 289 283 283 288 295 293 281 277 276 273 266 260 250 244 242 244 255 269 264 253 222 230 242 254 261 267 266 272 274 274 268 256 246
235 237 239 237 243 248 252 256 267 275 278 278 282 286 287 286 278 279 275 270 263 258 253 250 244 245 256 269 269 266 239 227 237 246 256 269 272 279 271 275 279 273 268
230 239 241 245 247 249 256 264 269 271 269 275 278 278 278 282 278 272 267 266 261 256 253 255 249 249 262 271 270 271 247 237 240 243 244 253 263 271 277 268 271 267 266
227 231 230 233 243 252 255 262 275 272 266 268 271 273 271 275 273 271 271 271 264 263 256 252 246 247 261 269 270 269 233 243 249 251 251 257 257 272 283 279 273 276 277
231 231 228 226 236 245 237 244 261 264 264 268 270 269 265 267 265 264 268 271 265 261 263 259 249 247 255 267 270 270 233 248 258 260 256 261 268 272 278 261 255 268 273
239 233 228 234 241 243 234 246 256 258 262 271 275 271 266 263 260 263 264 266 269 266 263 263 260 253 259 266 268 269 247 239 255 262 264 264 274 278 279 278 257 266 279
247 236 235 251 255 246 233 248 256 259 264 269 274 275 273 271 270 265 269 264 260 259 261 265 268 262 262 267 271 275 274 271 256 260 264 270 281 285 286 285 279 283 287
243 239 231 250 263 254 233 242 256 258 258 266 271 276 279 277 273 263 265 266 254 253 259 259 265 272 267 266 274 277 282 283 278 270 279 285 288 291 286 282 285 285 270
239 235 232 247 262 258 247 243 251 246 238 253 262 267 271 278 277 270 259 254 251 250 254 254 260 266 265 258 256 252 261 271 276 278 278 287 290 292 288 288 288 280 261
250 234 232 244 256 260 259 253 247 234 237 249 253 262 262 261 268 270 258 257 248 249 251 244 244 250 255 260 272 272 256 253 255 273 264 262 276 280 285 290 287 279 274
247 246 247 252 258 259 260 258 246 228 230 244 248 250 256 261 266 275 286 282 277 282 277 273 266 256 262 275 276 279 282 282 276 273 250 259 263 267 274 279 283 277 271